[[{"header":{"parameterUnit":"m.s-1","parameterCategory":1,"la1":30.2992,"la2":30.254,"lo1":-89.0895,"lo2":-89.0443,"dy":0.0025,"dx":0.0025,"nx":19,"ny":19,"refTime":"2026-04-04T09:00:00:Z","depth":0,"parameterNumber":2,"parameterNumberName":"U-component_of_WINDS"},"data":[0,0,0,-2.8732,-2.8731,-2.8714,-2.8714,-2.8703,-2.8703,0,0,0,0,0,0,0,0,0,0,0,-2.8744,-2.8744,-2.8732,-2.8731,-2.8714,-2.8714,-2.8703,-2.8703,0,0,0,0,0,0,0,0,0,0,0,-2.8744,-2.8744,-2.8744,-2.8731,-2.8714,-2.8714,-2.8703,-2.8712,0,0,0,0,0,0,0,0,0,0,-2.8727,-2.8745,-2.8744,-2.8744,-2.8731,-2.8714,-2.8714,-2.8712,-2.8712,-2.8716,0,-2.8722,0,-2.8713,-2.8703,-2.8703,0,0,0,-2.8726,-2.8746,-2.8735,-2.8744,-2.8731,-2.8714,-2.872,-2.8712,-2.8711,-2.8715,-2.8722,-2.8721,-2.8712,-2.8703,-2.8703,-2.8747,-2.8747,0,0,-2.8727,-2.8744,-2.8736,-2.8735,-2.8738,-2.8721,-2.872,-2.8711,-2.8719,-2.8722,-2.8721,-2.8712,-2.8703,-2.8703,-2.8746,-2.8747,0,0,0,-2.8733,-2.8745,-2.8734,-2.8736,-2.8732,-2.8721,-2.8719,-2.872,-2.8715,-2.872,-2.8712,-2.8703,-2.8703,-2.8746,-2.8746,-2.8784,0,0,0,-2.8734,-2.8749,-2.8735,-2.8746,-2.8732,-2.8726,-2.8729,-2.8715,-2.8714,-2.8712,-2.8703,-2.8703,-2.8745,-2.8746,-2.8782,-2.8799,0,0,0,-2.8743,-2.875,-2.875,-2.8746,-2.874,-2.8725,-2.8719,-2.8715,-2.8709,-2.8703,-2.8703,-2.8745,-2.8746,-2.878,-2.8796,-2.8814,0,0,0,-2.8757,-2.8785,-2.8751,-2.8779,-2.874,-2.875,-2.8719,-2.8726,-2.8725,-2.8703,-2.8745,-2.8746,-2.878,-2.8794,-2.8813,-2.8832,-2.8842,0,0,-2.8801,-2.8791,-2.8805,-2.8775,-2.8795,-2.8751,-2.8776,-2.876,-2.8744,-2.8747,-2.8747,-2.8783,-2.8796,-2.8814,-2.8896,-2.8905,0,0,0,-2.8825,-2.8836,-2.8838,-2.8838,-2.8827,-2.8817,-2.8795,-2.8789,-2.8791,-2.8749,-2.8795,-2.8802,-2.8812,-2.8821,-2.8828,-2.8834,-2.8752,-2.8751,-2.8751,-2.8912,-2.889,-2.8913,-2.8889,-2.889,-2.8867,-2.8865,-2.8853,-2.8831,-2.8842,-2.8842,-2.8895,-2.8906,-2.8911,-2.8918,-2.8852,-2.8853,-2.8853,-2.8853,-2.8974,-2.8985,-2.8955,-2.8966,-2.8942,-2.8952,-2.8931,-2.8915,-2.892,-2.8893,-2.8901,-2.8872,-2.892,-2.8926,-2.8855,-2.8855,-2.8855,-2.8854,-2.8854,-2.9026,-2.9028,-2.902,-2.9018,-2.902,-2.8995,-2.9001,-2.898,-2.896,-2.8968,-2.8965,-2.8964,-2.896,-2.8969,-2.8969,-2.8969,-2.8969,-2.8969,-2.8969,-2.9083,-2.9074,-2.9081,-2.9071,-2.9069,-2.9063,-2.9041,-2.9037,-2.9029,-2.9013,-2.9012,-2.8988,-2.893,-2.8915,-2.8972,-2.8972,-2.8971,-2.8971,-2.8971,-2.9151,-2.9132,-2.9144,-2.9141,-2.9128,-2.913,-2.9104,-2.9099,-2.9094,-2.9097,-2.9072,-2.9033,-2.902,-2.9015,-2.9001,-2.9078,-2.9078,-2.9078,-2.9078,-2.9194,-2.9186,-2.9193,-2.919,-2.9185,-2.9162,-2.9176,-2.9159,-2.9139,-2.9134,-2.9121,-2.9103,-2.9098,-2.9088,-2.908,-2.9068,-2.9159,-2.9159,-2.9159,-2.9234,-2.9224,-2.9239,-2.9219,-2.9208,-2.9198,-2.9209,-2.9207,-2.9181,-2.9162,-2.913,-2.9126,-2.9097,-2.9089,-2.9067,-2.9056,-2.9033,0,0]},{"header":{"parameterUnit":"m.s-1","parameterCategory":1,"la1":30.2992,"la2":30.254,"lo1":-89.0895,"lo2":-89.0443,"dy":0.0025,"dx":0.0025,"nx":19,"ny":19,"refTime":"2026-04-04T09:00:00:Z","depth":0,"parameterNumber":3,"parameterNumberName":"V-component_of_WINDS"},"data":[0,0,0,3.9319,3.932,3.9369,3.9369,3.9442,3.9442,0,0,0,0,0,0,0,0,0,0,0,3.9311,3.9311,3.9319,3.932,3.9369,3.9369,3.9442,3.9442,0,0,0,0,0,0,0,0,0,0,0,3.931,3.9311,3.9312,3.9321,3.9369,3.9369,3.9441,3.9401,0,0,0,0,0,0,0,0,0,0,3.9352,3.935,3.9311,3.9312,3.9321,3.9369,3.9369,3.9399,3.9404,3.9424,0,3.9443,0,3.9444,3.9448,3.9448,0,0,0,3.9316,3.9346,3.9354,3.9312,3.9321,3.9369,3.9346,3.9401,3.9407,3.943,3.9444,3.9447,3.9446,3.9449,3.9449,3.9583,3.9584,0,0,3.9313,3.9322,3.935,3.9358,3.935,3.9344,3.9347,3.9404,3.942,3.9445,3.9448,3.9447,3.9449,3.945,3.9583,3.9584,0,0,0,3.9309,3.9321,3.9327,3.9355,3.9363,3.9346,3.9349,3.9418,3.9419,3.9449,3.9448,3.945,3.9451,3.9582,3.9583,3.9635,0,0,0,3.9307,3.9318,3.9326,3.9332,3.9362,3.9391,3.9362,3.9415,3.9421,3.9447,3.945,3.9451,3.9581,3.9582,3.9631,3.9658,0,0,0,3.9305,3.9317,3.9327,3.9332,3.9354,3.939,3.9394,3.9416,3.9421,3.9448,3.9452,3.958,3.9582,3.9628,3.9653,3.9698,0,0,0,3.9306,3.937,3.9328,3.9399,3.9353,3.9421,3.9394,3.9443,3.9473,3.945,3.9581,3.9583,3.9627,3.965,3.9695,3.9739,3.9757,0,0,3.9392,3.9381,3.9422,3.9385,3.9464,3.9413,3.9499,3.9517,3.951,3.956,3.9563,3.9633,3.9652,3.9697,3.9856,3.9871,0,0,0,3.9452,3.9482,3.9501,3.953,3.9547,3.9563,3.9567,3.9574,3.9616,3.9537,3.966,3.9671,3.9697,3.9718,3.9731,3.9753,3.9592,3.9592,3.9592,3.9587,3.9577,3.9645,3.9642,3.9671,3.9676,3.9699,3.971,3.9689,3.9719,3.9733,3.9831,3.9856,3.9865,3.9889,3.9754,3.9755,3.9755,3.9755,3.9713,3.9755,3.9729,3.9786,3.9776,3.9824,3.9832,3.9817,3.9861,3.9818,3.9841,3.9797,3.9882,3.9902,3.9759,3.9758,3.9758,3.9757,3.9757,3.9801,3.982,3.9828,3.9872,3.9907,3.9901,3.9945,3.9933,3.9922,3.9944,3.996,3.9959,3.9959,3.9952,3.9953,3.9953,3.9953,3.9954,3.9954,3.989,3.9898,3.9937,3.9962,3.9981,4.0004,4.0011,4.0029,4.0047,4.0035,4.0035,4.0014,3.9891,3.9862,3.9959,3.9958,3.9957,3.9957,3.9957,4.0025,3.9993,4.0053,4.0073,4.0102,4.0139,4.0123,4.0162,4.0175,4.0198,4.0173,4.0084,4.0071,4.0061,4.0037,4.0173,4.0173,4.0173,4.0173,4.0101,4.0093,4.0154,4.0186,4.0216,4.0209,4.0279,4.0287,4.0289,4.0297,4.0275,4.0241,4.0231,4.0225,4.0211,4.0189,4.036,4.0361,4.0361,4.0184,4.018,4.0242,4.0244,4.0267,4.0287,4.0354,4.0392,4.0388,4.0368,4.0304,4.0296,4.0241,4.0223,4.0203,4.0182,4.014,0,0]}]]